Flag for U.S.A. Weather past 2 weeks in Germantown, Maryland, U.S.A.

Now
57 °F

Clear.


Feels Like: 57 °F
Forecast: 58 / 73 °F
Wind: No wind

Location: Frederick Municipal Airport

Current Time: Sep 16, 2014 at 8:25:17 AM

Latest Report: Sep 16, 2014 at 6:50 AM


Visibility: 10 mi

Pressure: 30.04 "Hg

Humidity: 94%

Dew point: 55 °F

Location of GermantownLocation

Historic Weather in Germantown — Graph

°F

Germantown temperature yesterday

Maximum temperature yesterday: 77 °F (at 3:50 PM)
Minimum temperature yesterday: 48 °F (at 6:25 AM)
Average temperature yesterday: 59 °F

Past Weeks' High & Low Weather Summary

 TemperatureHumidityPressure
High93 °F (Sep 5, 2:45 PM)100% (Sep 1, 9:50 AM)30.36 "Hg (Sep 1, 9:50 AM)
Low46 °F (Sep 14, 5:25 AM)39% (Sep 7, 3:50 PM)29.87 "Hg (Sep 2, 4:50 PM)
Average69 °F83%30.12 "Hg
* Reported Sep 1 6:05 AM — Sep 16 6:50 AM, Germantown, Weather by CustomWeather, © 2014

Note: Actual official high and low records may vary slightly from our data, if they occured in-between our weather recording intervals... More about our weather records

Advertising

Germantown weather history for previous 24 hours

 ConditionsComfort  
Time TempWeatherWind HumidityBarometerVisibility
6:50 AM
Sep 16
57 °FClear.No wind94%30.04 "Hg10 mi
6:30 AM55 °FFog.No wind100%30.04 "Hg1 mi
6:10 AM55 °FFog.No wind100%30.04 "Hg0 mi
5:50 AM55 °FClear.No wind100%30.04 "Hg7 mi
5:30 AM55 °FFog.No wind100%30.04 "Hg3 mi
5:10 AM55 °FFog.No wind100%30.04 "Hg1 mi
4:50 AM55 °FFog.No wind100%30.03 "Hg1 mi
4:30 AM59 °FFog.No wind94%30.04 "Hg3 mi
4:10 AM59 °FFog.No wind94%30.03 "Hg2 mi
3:50 AM59 °FFog.No wind94%30.04 "Hg5 mi
3:30 AM59 °FClear.No wind100%30.04 "Hg7 mi
3:10 AM61 °FPassing clouds.No wind94%30.04 "Hg10 mi
2:50 AM61 °FPartly cloudy.No wind94%30.05 "Hg10 mi
2:30 AM63 °FPassing clouds.No wind88%30.05 "Hg10 mi
1:50 AM63 °FOvercast.No wind94%30.05 "Hg10 mi
1:30 AM63 °FOvercast.No wind88%30.06 "Hg10 mi
1:10 AM61 °FOvercast.No wind94%30.07 "Hg10 mi
12:50 AM61 °FOvercast.No wind94%30.07 "Hg10 mi
12:30 AM61 °FPassing clouds.3 mph94%30.07 "Hg10 mi
12:10 AM61 °FPassing clouds.No wind94%30.08 "Hg10 mi
11:50 PM
Sep 15
59 °FPassing clouds.No wind94%30.07 "Hg10 mi
11:30 PM59 °FClear.No wind100%30.07 "Hg10 mi
10:50 PM61 °FClear.No wind88%30.09 "Hg10 mi
10:30 PM59 °FClear.No wind94%30.10 "Hg10 mi
10:10 PM61 °FClear.No wind88%30.10 "Hg10 mi
9:45 PM61 °FClear.No wind94%30.10 "Hg10 mi
9:25 PM61 °FClear.No wind88%30.11 "Hg7 mi
9:05 PM61 °FClear.No wind94%30.11 "Hg10 mi
8:45 PM63 °FClear.No wind88%30.11 "Hg10 mi
7:45 PM66 °FSunny.No wind83%30.12 "Hg10 mi
6:50 PM70 °FSunny.No wind64%30.13 "Hg10 mi
5:50 PM75 °FSunny.No wind47%30.14 "Hg10 mi
4:50 PM75 °FSunny.No wind44%30.16 "Hg10 mi
3:50 PM77 °FSunny.9 mph42%30.17 "Hg10 mi
2:50 PM75 °FScattered clouds.No wind44%30.19 "Hg10 mi
1:49 PM75 °FScattered clouds.7 mph44%30.22 "Hg10 mi
12:50 PM73 °FPartly sunny.No wind50%30.24 "Hg10 mi
11:45 AM72 °FSunny.3 mph57%30.26 "Hg10 mi
10:45 AM68 °FSunny.No wind60%30.28 "Hg10 mi
9:45 AM63 °FSunny.No wind73%30.29 "Hg10 mi
8:45 AM55 °FSunny.No wind94%30.29 "Hg10 mi
Weather by CustomWeather, © 2014

See weather overviewHow to use our weather pages